Minneapolis Crystal, MN

6:11 PM CST on December 14, 2017 (GMT -0600)
Crystal

Weather History for KMIC - May, 2014

Change the Weather History Date:

Saturday, May 24, 2014

  Actual Average Record
Temperature  
Mean Temperature 70 °F -  
Max Temperature 81 °F 67 °F 84 °F (2016)
Min Temperature 59 °F 46 °F 36 °F (2013)
Cooling Degree Days 5    
Growing Degree Days 20 (Base 50)    
Moisture  
Dew Point 46 °F    
Average Humidity 43    
Maximum Humidity 60    
Minimum Humidity 29    
Precipitation  
Precipitation 0.00 in - - ()
Sea Level Pressure  
Sea Level Pressure 30.09 in    
Wind  
Wind Speed 6 mph (SSE)    
Max Wind Speed 13 mph    
Max Gust Speed 21 mph    
Visibility 10 miles    
Events      
Averages and records for this station are not official NWS values.
T = Trace of Precipitation, MM = Missing Value Source: NWS Daily Summary

Daily Weather History Graph

Daily Weather History Graph

Search for Another Location

Airport or City:

Trip Planner

Search our weather history database for the weather conditions in past years. The results will help you decide how hot, cold, wet, or windy it might be!

Date:

Astronomy

May. 24, 2014 Rise Set
Actual Time 5:35 AM CDT 8:45 PM CDT
Civil Twilight 4:59 AM CDT 9:21 PM CDT
Nautical Twilight 4:14 AM CDT 10:07 PM CDT
Astronomical Twilight 3:18 AM CDT 11:03 PM CDT
Moon 3:16 AM CDT (5/24) 4:33 PM CDT (5/24)
Length of Visible Light 16h 21m
Length of Day
15h 10m
Waning Crescent, 18% of the Moon is Illuminated
May 24
Waning Crescent
May 28
New
Jun 5
First Quarter
Jun 12
Full
Jun 19
Last Quarter

Hourly Weather History & Observations

Time (CDT) Temp. Dew Point Humidity Pressure Visibility Wind Dir Wind Speed Gust Speed Precip Events Conditions
12:53 AM 61.0 °F 46.0 °F 58% 30.13 in 10.0 mi ESE 4.6 mph - N/A   Scattered Clouds
1:53 AM 60.1 °F 46.0 °F 60% 30.12 in 10.0 mi ESE 3.5 mph - N/A   Mostly Cloudy
2:53 AM 63.0 °F 43.0 °F 48% 30.12 in 10.0 mi SSE 3.5 mph - N/A   Mostly Cloudy
3:53 AM 60.1 °F 42.1 °F 51% 30.13 in 10.0 mi South 4.6 mph - N/A   Clear
4:53 AM 59.0 °F 43.0 °F 55% 30.13 in 10.0 mi Calm Calm - N/A   Overcast
5:53 AM 60.1 °F 45.0 °F 57% 30.13 in 10.0 mi South 5.8 mph - N/A   Overcast
6:53 AM 61.0 °F 46.9 °F 60% 30.14 in 10.0 mi SSE 3.5 mph - N/A   Overcast
7:53 AM 62.1 °F 46.0 °F 56% 30.14 in 10.0 mi South 4.6 mph - N/A   Clear
8:53 AM 68.0 °F 48.0 °F 49% 30.14 in 10.0 mi SSE 6.9 mph - N/A   Clear
9:53 AM 73.0 °F 46.0 °F 38% 30.13 in 10.0 mi South 12.7 mph 20.7 mph N/A   Clear
10:53 AM 73.9 °F 48.9 °F 41% 30.12 in 10.0 mi SSE 11.5 mph - N/A   Clear
11:53 AM 75.9 °F 48.0 °F 37% 30.11 in 10.0 mi South 9.2 mph 19.6 mph N/A   Clear
12:53 PM 77.0 °F 48.0 °F 36% 30.10 in 10.0 mi South 9.2 mph - N/A   Scattered Clouds
1:53 PM 77.0 °F 46.9 °F 34% 30.10 in 10.0 mi South 11.5 mph 19.6 mph N/A   Clear
2:53 PM 78.1 °F 46.0 °F 32% 30.09 in 10.0 mi SSW 8.1 mph - N/A   Clear
3:53 PM 78.1 °F 46.0 °F 32% 30.07 in 10.0 mi South 11.5 mph 16.1 mph N/A   Clear
4:53 PM 80.1 °F 45.0 °F 29% 30.06 in 10.0 mi SE 6.9 mph - N/A   Clear
5:53 PM 81.0 °F 46.0 °F 29% 30.04 in 10.0 mi SSE 5.8 mph - N/A   Clear
6:53 PM 80.1 °F 46.0 °F 30% 30.02 in 10.0 mi SE 8.1 mph - N/A   Clear
7:53 PM 77.0 °F 45.0 °F 32% 30.01 in 10.0 mi South 9.2 mph - N/A   Clear
8:53 PM 71.1 °F 46.0 °F 41% 30.01 in 10.0 mi SSE 6.9 mph - N/A   Clear
10:53 PM 70.0 °F 45.0 °F 41% 30.03 in 10.0 mi SE 6.9 mph - N/A   Clear
11:53 PM 68.0 °F 44.1 °F 42% 30.03 in 10.0 mi SE 6.9 mph - N/A   Clear